When you browse on this site, cookies collect data to enhance your experience and personalize the content and advertising you see.
Visit our Privacy Policy to learn more. By continuing to use the site, you agree to this use of cookies and data.
  • In Lithuania
  • List of Countries
  • For 7 days
  • Water Temperature
  • Weather Map
  • Weather Widgets
  • user-avatar
    Login

    Hourly Weather Zaharkino

    Today, 22 February, Saturday

    Time Temperature Precipitation Wind Pressure Humidity
    00:00 -1°C° 0 mm 3 mps 743 mmHg 90%
    01:00 -1°C° 0 mm 3 mps 743 mmHg 91%
    02:00 -2°C° 0 mm 3 mps 743 mmHg 91%
    03:00 -2°C° 0 mm 3 mps 743 mmHg 91%
    04:00 -2°C° 0 mm 3 mps 743 mmHg 92%
    05:00 -2°C° 0 mm 3 mps 743 mmHg 92%
    06:00 -3°C° 0 mm 4 mps 743 mmHg 91%
    07:00 -3°C° 0 mm 4 mps 743 mmHg 90%
    08:00 -2°C° 0 mm 5 mps 743 mmHg 88%
    09:00 -1°C° 0 mm 5 mps 742 mmHg 84%
    10:00 -1°C° 0 mm 5 mps 742 mmHg 81%
    11:00 -1°C° 0 mm 6 mps 742 mmHg 78%
    12:00 -1°C° 0 mm 6 mps 741 mmHg 77%
    13:00 -1°C° 0 mm 6 mps 741 mmHg 75%
    14:00 -1°C° 0 mm 6 mps 741 mmHg 76%
    15:00 -1°C° 0 mm 6 mps 740 mmHg 77%
    16:00 -1°C° 0 mm 6 mps 739 mmHg 77%
    17:00 -2°C° 0 mm 6 mps 738 mmHg 78%
    18:00 -2°C° 0 mm 7 mps 737 mmHg 78%
    19:00 -2°C° 0 mm 7 mps 736 mmHg 78%
    20:00 -2°C° 0 mm 8 mps 734 mmHg 77%
    21:00 -2°C° 0.3 mm 8 mps 733 mmHg 81%
    22:00 -3°C° 0.3 mm 9 mps 732 mmHg 85%
    23:00 -3°C° 0.3 mm 9 mps 730 mmHg 89%

    Tomorrow, 23 February, Sunday

    Time Temperature Precipitation Wind Pressure Humidity
    00:00 -4°C° 0.8 mm 9 mps 729 mmHg 90%
    01:00 -4°C° 0.8 mm 9 mps 728 mmHg 92%
    02:00 -4°C° 0.8 mm 9 mps 727 mmHg 94%
    03:00 -2°C° 0.4 mm 8 mps 726 mmHg 94%
    04:00 -2°C° 0.4 mm 8 mps 725 mmHg 94%
    05:00 -2°C° 0.4 mm 7 mps 724 mmHg 93%
    06:00 -2°C° 0.4 mm 6 mps 724 mmHg 93%
    07:00 -1°C° 0.4 mm 5 mps 724 mmHg 92%
    08:00 -1°C° 0.4 mm 4 mps 724 mmHg 91%
    09:00 0°C° 0.1 mm 4 mps 723 mmHg 86%
    10:00 0°C° 0.1 mm 5 mps 723 mmHg 80%
    11:00 +1°C° 0.1 mm 5 mps 723 mmHg 75%
    12:00 +1°C° 0 mm 5 mps 723 mmHg 74%
    13:00 +1°C° 0 mm 5 mps 723 mmHg 73%
    14:00 +1°C° 0 mm 5 mps 723 mmHg 72%
    15:00 0°C° 0 mm 4 mps 723 mmHg 75%
    16:00 -1°C° 0 mm 4 mps 723 mmHg 78%
    17:00 -1°C° 0 mm 3 mps 722 mmHg 80%
    18:00 -2°C° 0 mm 4 mps 722 mmHg 83%
    19:00 -2°C° 0 mm 4 mps 722 mmHg 86%
    20:00 -2°C° 0 mm 4 mps 722 mmHg 89%
    21:00 -2°C° 0.1 mm 4 mps 722 mmHg 90%
    22:00 -2°C° 0.1 mm 4 mps 721 mmHg 91%
    23:00 -2°C° 0.1 mm 4 mps 721 mmHg 92%

    Day after tomorrow, 24 February, Monday

    Time Temperature Precipitation Wind Pressure Humidity
    00:00 -2°C° 0 mm 4 mps 721 mmHg 91%
    01:00 -2°C° 0 mm 4 mps 721 mmHg 90%
    02:00 -1°C° 0 mm 4 mps 721 mmHg 88%
    03:00 -2°C° 0 mm 4 mps 721 mmHg 89%
    04:00 -2°C° 0 mm 4 mps 721 mmHg 90%
    05:00 -2°C° 0 mm 4 mps 721 mmHg 90%
    06:00 -2°C° 0 mm 4 mps 721 mmHg 89%
    07:00 -2°C° 0 mm 4 mps 722 mmHg 88%
    08:00 -1°C° 0 mm 3 mps 722 mmHg 88%
    09:00 -1°C° 0 mm 4 mps 722 mmHg 84%
    10:00 -1°C° 0 mm 4 mps 723 mmHg 81%
    11:00 -1°C° 0 mm 4 mps 723 mmHg 77%
    12:00 -1°C° 0.1 mm 4 mps 723 mmHg 78%
    13:00 0°C° 0.1 mm 4 mps 723 mmHg 78%
    14:00 0°C° 0.1 mm 4 mps 724 mmHg 79%
    15:00 -1°C° 0 mm 4 mps 724 mmHg 79%
    16:00 -2°C° 0 mm 4 mps 725 mmHg 79%
    17:00 -2°C° 0 mm 4 mps 725 mmHg 78%
    18:00 -3°C° 0 mm 4 mps 726 mmHg 80%
    19:00 -4°C° 0 mm 4 mps 727 mmHg 81%
    20:00 -4°C° 0 mm 3 mps 727 mmHg 83%
    21:00 -5°C° 0 mm 4 mps 728 mmHg 79%
    22:00 -5°C° 0 mm 4 mps 728 mmHg 76%
    23:00 -5°C° 0 mm 4 mps 728 mmHg 73%

    25 February, Tuesday

    Time Temperature Precipitation Wind Pressure Humidity
    00:00 -5°C° 0 mm 4 mps 729 mmHg 75%
    01:00 -5°C° 0 mm 4 mps 729 mmHg 77%
    02:00 -5°C° 0 mm 4 mps 729 mmHg 79%
    03:00 -5°C° 0 mm 4 mps 729 mmHg 80%
    04:00 -5°C° 0 mm 4 mps 729 mmHg 81%
    05:00 -5°C° 0 mm 4 mps 729 mmHg 82%
    06:00 -5°C° 0 mm 4 mps 730 mmHg 81%
    07:00 -5°C° 0 mm 4 mps 730 mmHg 80%
    08:00 -5°C° 0 mm 4 mps 730 mmHg 79%
    09:00 -4°C° 0 mm 4 mps 730 mmHg 73%
    10:00 -3°C° 0 mm 4 mps 730 mmHg 68%
    11:00 -2°C° 0 mm 4 mps 730 mmHg 63%
    12:00 -2°C° 0 mm 4 mps 730 mmHg 61%
    13:00 -1°C° 0 mm 4 mps 730 mmHg 60%
    14:00 0°C° 0 mm 3 mps 730 mmHg 58%
    15:00 -1°C° 0 mm 3 mps 730 mmHg 64%
    16:00 -2°C° 0 mm 2 mps 730 mmHg 69%
    17:00 -3°C° 0 mm 2 mps 729 mmHg 74%
    18:00 -3°C° 0 mm 2 mps 729 mmHg 74%
    19:00 -3°C° 0 mm 2 mps 729 mmHg 74%
    20:00 -4°C° 0 mm 3 mps 729 mmHg 74%
    21:00 -4°C° 0 mm 3 mps 728 mmHg 75%
    22:00 -4°C° 0 mm 3 mps 727 mmHg 75%
    23:00 -3°C° 0 mm 4 mps 727 mmHg 76%

    26 February, Wednesday

    Time Temperature Precipitation Wind Pressure Humidity
    00:00 -3°C° 0.4 mm 4 mps 726 mmHg 82%
    01:00 -3°C° 0.4 mm 4 mps 725 mmHg 88%
    02:00 -3°C° 0.4 mm 4 mps 724 mmHg 95%
    03:00 -3°C° 0.2 mm 4 mps 724 mmHg 95%
    04:00 -2°C° 0.2 mm 4 mps 723 mmHg 96%
    05:00 -1°C° 0.2 mm 3 mps 723 mmHg 97%
    06:00 0°C° 0.3 mm 3 mps 722 mmHg 97%
    07:00 0°C° 0.3 mm 3 mps 722 mmHg 97%
    08:00 +1°C° 0.3 mm 2 mps 722 mmHg 97%
    09:00 0°C° 0.9 mm 3 mps 722 mmHg 96%
    10:00 0°C° 0.9 mm 3 mps 722 mmHg 96%
    11:00 -1°C° 0.9 mm 4 mps 722 mmHg 95%
    12:00 0°C° 0 mm 4 mps 722 mmHg 89%
    13:00 0°C° 0 mm 4 mps 723 mmHg 84%
    14:00 0°C° 0 mm 4 mps 723 mmHg 78%
    15:00 +1°C° 0 mm 3 mps 724 mmHg 80%
    16:00 0°C° 0 mm 3 mps 724 mmHg 82%
    17:00 +1°C° 0 mm 2 mps 725 mmHg 84%
    18:00 -1°C° 0 mm 2 mps 725 mmHg 85%
    19:00 -2°C° 0 mm 2 mps 726 mmHg 87%
    20:00 -2°C° 0 mm 2 mps 726 mmHg 88%
    21:00 -2°C° 0 mm 2 mps 727 mmHg 89%
    22:00 -3°C° 0 mm 2 mps 727 mmHg 90%
    23:00 -3°C° 0 mm 2 mps 727 mmHg 90%

    27 February, Thursday

    Time Temperature Precipitation Wind Pressure Humidity
    00:00 -3°C° 0 mm 2 mps 728 mmHg 92%
    01:00 -3°C° 0 mm 2 mps 728 mmHg 93%
    02:00 -3°C° 0 mm 2 mps 728 mmHg 94%
    03:00 -3°C° 0 mm 2 mps 728 mmHg 93%
    04:00 -3°C° 0 mm 2 mps 728 mmHg 93%
    05:00 -3°C° 0 mm 2 mps 728 mmHg 93%
    06:00 -2°C° 0 mm 2 mps 728 mmHg 91%
    07:00 -2°C° 0 mm 2 mps 728 mmHg 89%
    08:00 -2°C° 0 mm 2 mps 728 mmHg 87%
    09:00 -1°C° 0 mm 2 mps 729 mmHg 83%
    10:00 0°C° 0 mm 3 mps 729 mmHg 79%
    11:00 +1°C° 0 mm 3 mps 729 mmHg 75%
    12:00 +2°C° 0 mm 3 mps 729 mmHg 74%
    13:00 +2°C° 0 mm 3 mps 729 mmHg 74%
    14:00 +2°C° 0 mm 3 mps 729 mmHg 74%
    15:00 +1°C° 0 mm 3 mps 730 mmHg 78%
    16:00 +1°C° 0 mm 2 mps 730 mmHg 82%
    17:00 -1°C° 0 mm 2 mps 730 mmHg 87%
    18:00 -1°C° 0 mm 2 mps 731 mmHg 87%
    19:00 -2°C° 0 mm 2 mps 731 mmHg 87%
    20:00 -2°C° 0 mm 2 mps 731 mmHg 88%
    21:00 -2°C° 0 mm 2 mps 732 mmHg 85%
    22:00 -2°C° 0 mm 3 mps 732 mmHg 83%
    23:00 -2°C° 0 mm 3 mps 732 mmHg 81%
    Show more